Theta_e
295 295 295 295 295 295 295 295 295 295 294 294 294 294 294 294 293 293 293 293 293 293 292 292 292 292 291 291 290 289 289 288 287 287 287 286 286 286 286 286 286 285 285 284 284 284 284 284 284 283 283 284 283 283 283 282 282 282 281 281 281 281 281 280 281 282 282 281 280 279 279 279 279 279 279 279 279 280 280 280 280 280 280 280 279
295 295 294 294 294 294 294 294 294 294 294 294 294 294 294 294 293 293 293 292 292 292 292 292 292 291 291 291 290 289 289 288 288 287 286 286 286 286 286 286 285 285 284 284 284 284 283 283 283 283 283 283 283 283 283 282 282 281 281 281 280 280 280 280 280 279 280 280 278 277 277 277 277 278 278 278 278 278 279 279 279 279 278 278 278
294 294 294 294 294 294 293 294 294 294 294 294 294 294 294 293 293 293 292 292 292 292 292 292 291 291 291 290 290 289 289 288 287 287 286 286 286 285 285 285 285 285 284 284 284 284 283 283 283 283 283 283 283 283 283 282 282 281 281 280 280 280 280 279 279 278 277 277 277 276 275 275 276 277 277 277 276 277 277 278 278 278 278 278 278
294 294 294 294 294 294 293 293 293 293 293 293 294 294 294 293 293 292 292 292 291 291 291 291 291 290 290 290 289 289 289 288 287 286 286 286 286 285 285 285 285 285 285 284 284 284 283 283 283 283 283 283 283 282 282 282 281 281 280 280 279 279 279 278 277 277 276 275 275 275 274 274 275 275 276 276 276 276 276 277 277 277 277 277 277
295 294 294 293 293 293 293 293 293 293 293 293 294 294 293 293 292 292 291 291 291 291 291 290 290 290 290 289 289 289 288 288 287 286 286 286 285 285 285 285 285 285 285 285 284 284 284 283 283 283 283 283 283 282 282 281 281 280 280 279 279 278 277 276 275 275 274 273 274 274 274 274 274 275 275 275 276 276 276 277 277 277 277 277 277
294 294 294 293 293 293 293 293 293 293 293 293 294 293 292 292 292 291 291 291 290 290 290 290 290 289 290 289 289 289 288 287 287 286 286 285 285 285 285 285 285 284 284 284 284 284 284 284 284 283 283 283 283 282 282 281 280 280 279 278 278 277 276 275 274 274 273 273 273 274 274 275 275 275 276 276 276 276 277 277 277 277 277 277 277
293 294 294 293 293 293 292 292 293 293 293 293 293 292 292 292 291 291 291 290 290 290 289 289 289 289 289 289 289 288 288 287 286 286 286 285 284 284 284 284 284 284 284 284 284 284 283 283 283 283 283 283 283 283 282 281 280 280 279 278 278 277 276 275 274 273 273 273 274 274 275 275 275 275 276 277 277 277 277 277 276 277 277 277 277
293 293 293 293 293 293 293 293 293 293 293 292 292 292 292 292 291 291 290 290 290 290 289 289 289 288 288 288 288 288 287 287 286 286 285 285 284 284 284 284 283 283 283 283 283 283 283 283 283 283 284 283 283 283 283 282 281 280 279 278 277 277 276 275 274 273 274 274 275 275 275 275 276 276 277 277 277 277 277 276 276 277 277 277 277
292 293 293 292 292 293 293 293 293 293 293 292 292 291 291 291 291 290 290 290 289 289 289 289 288 288 288 287 287 287 287 287 286 286 285 284 284 283 283 283 283 282 282 282 282 282 282 283 283 283 283 283 283 283 282 282 281 280 279 278 277 276 276 275 274 274 274 275 275 275 276 276 277 277 277 277 277 276 276 276 277 277 277 277 277
291 292 292 292 292 292 292 292 292 292 292 292 291 291 291 291 290 290 290 289 289 288 288 288 287 287 287 287 286 286 286 286 286 286 286 285 284 283 282 282 282 282 282 281 281 281 281 282 282 282 282 282 282 281 281 281 280 280 279 279 278 277 276 274 274 274 275 275 275 276 277 277 277 277 277 277 276 276 276 277 277 277 277 276 277
290 291 291 292 292 292 292 292 292 292 292 291 291 291 290 290 290 290 289 288 288 288 287 287 287 287 287 286 286 286 286 286 286 285 285 285 284 283 282 282 282 281 281 281 280 280 281 281 281 281 281 281 281 280 280 279 279 278 278 278 278 277 276 275 275 275 275 275 276 277 277 277 277 277 276 276 276 276 277 277 277 276 277 277 277
290 290 291 290 291 291 291 290 291 291 291 291 291 290 290 290 289 289 288 288 287 287 287 287 286 286 286 286 286 285 285 285 285 285 285 285 284 284 283 282 281 281 281 280 280 280 280 280 280 280 280 280 280 279 278 278 278 277 277 276 277 277 277 276 276 276 276 276 277 277 277 277 277 276 276 276 276 277 277 277 277 277 277 277 276
289 290 290 290 290 290 290 290 289 290 290 290 290 290 289 289 289 288 288 288 287 287 286 286 286 286 285 285 285 285 285 285 284 284 284 284 284 283 282 282 281 281 280 280 280 280 280 280 279 279 279 279 279 278 277 277 277 277 276 276 276 277 277 277 277 277 277 277 277 277 277 277 276 276 276 276 277 277 277 277 277 276 276 275 275
289 289 289 289 289 289 289 289 289 289 289 290 289 289 289 289 288 288 288 287 286 286 286 285 285 285 285 285 285 285 284 284 284 284 284 284 284 283 282 281 281 280 280 280 280 280 280 280 280 279 278 278 278 278 277 276 276 276 276 277 277 278 278 278 278 278 278 278 277 277 276 276 276 276 277 277 277 277 277 276 276 275 274 273 273
288 289 288 288 288 288 288 289 288 288 289 289 289 288 288 288 288 287 287 286 286 286 285 285 285 285 285 285 284 284 284 284 284 284 284 284 284 283 282 281 280 280 279 279 280 280 280 280 280 279 278 278 277 277 277 276 276 276 277 277 277 277 277 277 277 277 277 277 276 276 276 276 277 277 277 277 277 277 276 276 274 273 273 272 271
288 288 288 287 287 287 287 287 288 288 288 288 288 288 288 288 287 287 286 286 286 285 285 285 285 284 284 284 284 284 284 283 283 283 284 284 284 283 281 280 279 279 278 278 278 279 279 279 279 278 278 278 277 277 277 276 276 276 277 277 276 276 276 276 276 276 276 276 276 276 277 277 277 277 277 277 277 276 275 274 273 272 271 270 270
287 287 287 287 287 286 286 287 287 288 288 287 287 288 287 287 287 286 286 285 285 285 285 284 284 284 284 284 284 283 283 283 283 283 284 284 284 283 281 279 279 278 278 277 277 277 277 278 278 278 278 277 277 277 276 275 275 275 276 276 275 275 275 275 275 276 276 276 277 277 277 277 277 276 276 276 275 274 273 272 272 271 270 269 269
286 286 286 286 286 287 287 286 287 287 287 287 287 287 287 287 286 286 285 285 285 284 284 284 284 284 284 283 283 283 283 282 282 283 284 285 285 283 280 279 278 277 277 276 276 276 276 277 278 277 277 277 277 277 276 275 275 275 275 274 275 275 275 275 275 275 276 276 276 276 275 275 275 274 274 273 273 273 272 271 270 270 269 268 268
284 284 284 285 286 287 287 286 286 286 286 287 287 286 286 286 286 286 285 285 284 284 284 283 283 283 283 283 283 283 282 282 282 284 285 285 285 283 280 278 277 276 276 275 275 275 276 276 276 276 277 277 277 278 277 276 275 275 275 274 275 275 275 275 275 275 275 276 275 274 273 273 273 273 273 273 272 272 271 270 270 269 268 268 268
281 280 281 284 286 287 286 286 285 285 286 286 286 286 286 286 285 285 285 284 284 283 283 283 283 282 282 282 282 282 282 281 282 284 285 286 285 282 280 278 277 276 275 275 275 275 275 275 275 276 276 276 277 279 279 276 275 275 275 275 275 275 275 275 275 275 275 274 273 273 273 273 272 272 272 272 272 271 271 270 269 268 268 268 268
278 278 280 284 285 285 284 284 285 285 285 286 286 286 286 285 285 285 284 284 283 283 282 282 282 282 281 281 281 281 281 281 282 283 285 286 285 282 280 278 277 276 275 275 275 275 275 275 276 276 276 276 278 279 279 278 276 276 276 276 276 275 275 275 275 275 274 273 273 273 272 272 271 271 271 271 271 271 270 269 268 268 268 268 268
276 277 280 282 282 281 282 282 283 284 284 285 285 285 285 285 284 284 283 283 282 282 282 281 281 280 280 280 280 280 280 280 281 283 285 286 284 282 280 279 278 277 276 275 275 275 275 275 276 276 277 277 278 279 279 279 278 277 276 276 276 276 276 276 275 275 274 273 273 272 271 271 271 271 271 271 271 271 270 269 268 268 268 268 268
275 277 279 280 279 278 279 280 281 283 283 284 284 284 284 284 283 283 283 282 281 281 280 280 280 279 279 279 279 279 279 279 280 281 284 286 284 282 281 280 279 278 277 276 276 275 275 276 276 277 278 278 278 279 279 279 279 278 277 277 277 276 276 275 275 274 273 272 272 271 271 270 270 271 271 271 271 270 269 268 267 267 267 267 267
275 276 277 277 276 276 276 277 279 281 282 283 283 283 283 283 282 282 282 281 280 280 279 279 278 278 277 277 277 278 278 278 279 280 283 285 285 282 281 280 279 278 277 277 276 276 276 276 276 277 278 278 278 279 279 279 279 278 277 277 277 276 275 275 274 273 272 271 271 270 270 270 270 271 270 270 269 269 268 267 267 267 267 267 267
274 275 275 274 274 274 274 275 276 279 281 282 282 282 283 282 281 281 280 280 279 279 278 278 277 277 277 276 276 277 277 277 278 279 281 284 285 283 281 281 280 279 277 277 276 276 276 276 276 277 279 279 279 279 279 279 279 278 277 277 276 275 274 273 272 272 271 270 270 270 270 270 270 270 269 269 268 268 267 267 267 267 267 266 266
272 272 271 271 271 272 273 274 275 277 280 281 281 282 282 282 281 280 279 279 279 279 278 277 277 277 277 276 276 276 276 276 277 278 279 282 284 284 282 281 281 279 277 277 276 276 276 276 276 277 279 279 279 279 279 278 278 277 276 275 275 274 273 272 271 271 270 270 270 270 270 270 270 269 269 268 267 267 267 266 266 266 266 266 266
270 269 269 269 270 270 272 273 274 277 279 280 281 281 281 281 280 279 279 278 278 278 278 278 277 277 277 277 276 275 275 275 276 277 278 280 283 284 283 281 281 279 277 276 276 276 276 276 276 277 278 278 278 277 277 276 275 275 274 274 274 273 272 271 270 270 269 269 269 270 270 270 269 269 268 267 267 267 266 265 265 265 266 266 266
268 268 268 268 269 270 271 273 274 276 278 280 280 280 280 280 280 279 279 279 279 278 278 278 277 277 277 277 276 274 274 275 275 276 277 279 282 284 283 281 281 279 277 276 276 276 277 277 277 278 277 276 275 275 275 274 274 274 274 273 272 271 270 269 269 269 269 269 269 269 269 269 269 268 267 266 266 266 266 265 265 265 265 266 266
266 266 267 267 268 270 271 272 274 276 277 279 280 280 280 280 280 280 280 280 280 280 279 279 278 278 278 277 276 274 274 274 275 276 277 278 281 283 283 282 280 278 277 276 276 276 277 277 276 276 275 274 273 273 273 273 273 272 272 271 270 269 268 268 269 269 269 268 268 269 269 268 268 267 266 265 265 266 266 265 265 265 266 266 266
265 265 266 267 268 270 271 273 274 276 277 278 279 279 280 280 280 280 280 280 280 280 280 280 279 279 278 278 277 276 276 276 276 276 277 278 281 282 283 282 280 278 277 277 276 276 276 275 274 273 273 272 271 271 271 272 272 271 269 269 268 268 268 268 268 268 268 268 268 269 268 267 267 266 265 264 265 265 265 265 265 265 265 265 266
264 265 265 266 267 269 270 272 273 274 276 277 278 279 279 279 279 280 280 280 279 279 280 280 280 279 278 278 277 277 277 276 276 276 277 278 280 282 282 281 279 278 277 277 276 275 274 273 272 272 272 271 271 270 270 271 270 269 268 268 268 268 268 268 268 268 268 268 268 268 267 266 266 265 264 264 264 264 264 264 265 265 265 265 266
263 264 264 265 266 267 269 270 272 274 276 276 277 278 278 278 278 279 279 280 280 279 279 280 280 279 279 278 277 277 276 276 276 277 277 278 280 282 282 281 279 278 278 277 275 274 273 272 271 271 270 270 270 270 270 270 269 269 268 267 267 267 268 268 268 268 268 268 268 268 267 266 265 264 264 264 264 263 264 264 264 265 265 265 266
263 263 263 264 265 267 269 270 272 274 276 277 278 278 278 278 278 278 278 279 279 280 280 280 280 280 279 279 278 277 276 276 277 277 278 279 280 281 282 281 280 279 278 276 274 273 272 272 271 270 270 270 270 270 270 270 269 268 268 268 268 268 268 267 267 268 268 268 267 267 266 266 265 264 264 264 263 263 263 264 264 265 265 266 266
263 263 264 265 266 268 269 270 271 272 273 274 276 278 278 278 278 278 278 277 278 279 279 280 280 280 280 280 279 278 277 277 277 277 278 279 280 281 282 281 280 279 278 275 273 272 272 271 270 270 270 270 270 270 270 269 268 268 268 268 268 268 267 267 267 267 267 267 266 266 266 265 265 264 263 263 263 263 263 263 264 265 265 266 267
263 264 265 266 267 267 268 268 268 269 270 271 274 276 278 278 278 277 277 277 277 278 278 279 279 280 280 280 280 279 278 278 278 278 279 279 280 281 282 281 280 280 277 274 273 272 272 271 270 270 269 269 270 270 270 269 268 268 268 268 267 267 267 267 267 267 267 266 266 266 266 265 265 264 263 263 262 262 263 263 264 265 266 266 267
263 264 264 265 265 265 265 266 267 269 270 272 274 276 278 278 277 277 277 277 277 277 278 278 278 279 280 280 280 279 279 278 278 279 279 279 280 281 281 280 280 278 275 273 273 272 272 271 270 269 269 270 270 270 269 269 268 268 268 267 267 267 267 267 267 266 266 266 266 266 265 265 264 264 263 263 262 262 263 264 264 265 266 267 268
263 263 263 263 264 265 266 267 268 270 271 272 274 276 277 278 277 277 277 277 277 277 277 277 277 278 279 280 280 280 279 279 279 279 279 280 281 281 281 280 278 276 273 272 272 271 270 270 270 270 270 270 270 269 268 268 268 267 267 267 267 267 267 266 266 267 267 267 266 266 265 265 265 265 263 262 262 262 263 264 265 266 267 267 268
262 263 263 264 265 266 266 267 267 267 269 270 272 275 276 277 277 276 276 276 276 276 276 277 277 277 278 279 279 279 279 279 279 279 280 280 281 281 280 279 277 274 272 272 271 270 270 269 270 271 271 270 269 268 268 267 267 267 267 267 267 267 267 267 267 267 267 266 266 265 265 265 265 265 264 262 262 262 263 264 265 266 267 267 268
263 263 264 264 265 265 265 266 266 267 268 270 272 274 276 276 276 276 275 275 276 276 276 276 276 277 277 278 279 279 279 279 279 279 279 280 280 280 279 277 274 272 271 270 270 270 270 269 270 270 270 269 268 268 267 267 267 266 266 267 267 266 266 267 266 266 266 266 266 266 265 266 265 265 264 263 262 263 264 265 266 267 267 267 267
263 263 263 263 264 265 265 266 267 268 270 271 273 275 276 276 275 275 275 275 275 275 275 276 276 276 277 278 278 278 278 278 279 279 279 280 280 279 277 275 272 270 270 270 269 270 270 270 270 270 270 268 268 267 267 267 267 266 266 266 266 266 266 266 266 266 266 266 266 266 265 265 265 265 264 263 263 263 264 265 266 267 267 267 267
262 263 263 263 264 265 265 266 267 268 270 271 273 275 275 275 275 275 275 275 275 275 275 276 276 276 277 278 278 278 278 278 278 279 279 278 276 275 274 272 271 271 271 270 270 270 271 271 270 269 269 268 267 267 266 266 266 266 266 266 266 266 266 266 266 266 265 265 265 265 265 266 265 264 263 263 264 264 265 266 266 266 267 267 267
262 262 262 263 263 264 264 265 266 268 270 271 272 274 275 275 274 274 274 274 274 275 275 275 276 276 277 277 278 278 278 277 277 277 276 274 273 272 271 271 272 272 271 270 270 270 270 270 269 269 268 267 267 266 266 266 266 266 266 266 266 266 266 265 265 265 265 265 265 265 265 266 265 264 263 263 264 264 265 265 266 266 267 267 266
261 262 262 262 263 264 265 265 267 269 271 272 273 273 274 274 274 274 274 274 274 275 275 275 276 276 276 278 279 278 277 276 275 274 273 272 271 270 270 270 271 271 270 270 270 270 270 269 269 268 267 267 267 267 267 267 266 266 266 266 266 265 265 265 265 265 265 265 265 265 265 266 265 265 264 264 264 264 265 265 266 266 266 266 266
262 262 263 263 264 264 265 266 268 270 271 272 273 273 274 274 274 274 274 274 274 274 275 275 275 276 276 278 278 276 275 273 273 272 271 270 269 269 269 270 270 269 270 270 270 270 270 269 268 267 267 266 266 266 266 266 266 266 266 266 266 266 265 265 265 265 265 265 265 265 265 265 265 265 264 263 264 264 265 265 266 266 266 266 266
262 263 263 264 265 266 266 268 269 270 271 272 273 273 273 273 273 273 274 274 274 274 275 275 275 275 275 275 275 273 271 271 270 269 269 268 268 268 269 269 270 270 271 271 270 269 269 268 267 267 266 266 266 266 266 265 265 265 265 265 266 265 265 265 265 264 264 265 265 265 265 265 265 264 264 264 264 264 265 266 266 266 266 266 266
264 264 265 265 266 266 267 268 269 270 271 272 273 273 272 273 273 273 273 273 274 274 274 273 273 273 272 271 270 269 268 268 268 267 267 267 267 268 269 270 271 271 271 270 269 268 268 267 267 267 266 266 266 265 265 265 265 265 265 265 265 265 265 264 264 264 264 265 265 265 265 265 265 265 265 265 265 265 265 266 266 266 266 266 266
265 265 266 266 267 268 269 269 270 271 272 272 272 272 272 272 272 273 273 273 273 272 271 270 270 269 269 268 267 267 266 266 266 266 266 267 268 269 270 270 270 270 269 268 268 267 267 266 266 266 266 265 265 265 265 265 265 265 265 265 265 265 264 264 264 264 264 264 264 265 265 265 264 265 265 265 265 265 266 266 266 266 266 266 266
264 265 266 267 267 268 269 269 270 270 270 271 271 271 271 271 271 271 271 270 270 269 268 268 267 267 266 266 265 265 265 265 265 265 266 268 269 269 269 269 269 268 268 267 266 266 266 266 265 265 265 265 264 264 264 264 264 264 264 265 264 264 264 264 264 264 264 264 265 265 265 265 264 265 265 265 265 266 266 266 266 266 266 266 265
264 264 265 265 266 267 267 268 268 268 268 268 269 269 269 269 269 268 268 268 267 267 266 266 265 265 265 264 264 264 265 265 265 265 266 268 268 268 268 269 268 267 267 266 266 265 265 265 265 265 264 264 264 264 264 264 264 264 264 264 264 264 264 264 264 264 264 264 265 265 265 265 265 265 265 266 266 266 266 266 266 266 266 265 265
263 263 264 264 265 265 266 266 266 266 267 267 267 267 267 267 267 266 266 266 265 265 265 264 264 264 264 264 264 264 264 265 266 267 267 267 267 268 268 267 267 266 266 266 265 265 265 265 264 264 264 264 264 264 264 264 264 264 264 264 264 264 264 264 264 264 264 265 265 265 265 265 265 266 266 266 266 266 265 266 266 266 266 265 264
262 263 263 263 264 264 265 265 265 265 265 265 265 265 265 265 265 265 265 265 264 264 264 263 263 263 263 263 263 264 264 265 266 267 267 267 267 267 267 266 266 266 265 265 265 265 264 264 264 264 264 264 264 264 264 264 264 264 264 264 264 264 264 264 264 264 264 264 264 264 265 265 266 267 267 266 266 266 266 266 266 266 265 264 264
Wind_Speed
29 31 33 33 34 36 37 37 37 37 37 37 38 39 39 40 40 39 39 40 41 41 41 42 43 44 45 45 46 46 46 46 45 45 44 44 43 42 41 40 39 37 35 33 32 31 30 30 29 28 27 26 26 25 24 23 21 20 19 19 19 19 19 17 11 8 13 13 12 13 15 16 17 17 18 21 20 18 19 22 24 25 25 26 27
29 29 30 30 33 35 34 34 35 36 37 37 38 38 39 40 40 39 40 40 40 41 41 42 42 43 44 45 46 46 47 47 47 47 46 45 44 43 43 42 40 38 37 36 35 33 32 31 31 30 29 28 27 27 26 24 23 22 22 21 21 21 21 20 15 10 14 17 15 14 13 12 14 16 18 19 19 19 22 24 24 24 24 25 26
28 29 30 32 33 33 33 34 34 35 36 38 40 40 40 41 41 41 41 40 40 41 42 42 42 43 44 44 45 46 47 47 48 48 48 47 46 45 44 44 43 41 40 39 38 36 34 34 33 32 31 29 28 27 26 25 24 23 23 22 22 21 21 21 18 15 16 17 14 11 8 9 13 16 15 16 16 18 21 23 22 22 22 22 24
28 30 31 34 34 34 35 36 35 35 38 40 42 43 43 42 42 43 42 42 42 42 41 42 42 42 43 44 45 46 47 47 47 48 48 48 48 47 46 45 45 44 44 42 41 39 38 37 36 35 33 32 31 29 28 27 26 25 24 23 21 20 20 20 20 18 15 13 12 10 10 11 14 13 12 13 14 17 20 20 19 19 20 20 22
30 29 31 33 33 34 36 36 36 38 40 41 43 44 43 42 42 42 42 42 42 42 42 43 43 43 45 46 47 47 47 47 48 48 48 48 48 48 47 47 47 46 45 45 44 43 41 40 39 37 36 35 33 32 31 29 27 26 24 23 21 19 18 17 17 16 14 14 14 14 13 13 13 11 9 11 14 17 18 17 16 18 19 20 22
33 31 31 31 32 33 35 35 37 40 42 44 44 42 41 41 41 41 42 42 42 42 43 44 45 46 46 46 47 47 46 47 48 48 49 48 48 48 48 48 48 48 47 46 45 45 43 42 41 40 39 38 36 35 33 31 29 27 25 23 20 18 17 15 14 14 13 14 14 14 13 12 11 10 9 10 13 16 17 17 18 19 21 22 22
34 32 31 31 32 33 34 35 38 41 43 44 44 41 40 40 41 42 43 43 43 43 44 45 46 47 47 46 46 46 46 46 47 48 49 49 49 49 49 48 48 48 47 47 46 45 45 43 42 41 40 39 38 36 34 32 30 28 25 23 20 18 16 15 13 12 11 10 10 10 10 10 10 10 9 9 10 13 16 19 20 21 21 22 24
34 33 30 29 31 33 35 37 39 41 43 43 41 40 39 40 42 43 42 43 45 46 46 46 45 45 46 46 47 47 46 47 48 48 49 50 50 50 50 49 48 47 46 46 46 46 45 43 42 41 40 39 38 36 34 33 31 28 25 22 20 19 17 15 12 10 9 8 7 8 8 8 8 8 8 8 9 12 16 19 21 22 22 23 24
34 34 32 30 30 32 35 37 39 40 42 41 40 40 40 40 41 42 43 44 45 45 45 45 44 43 44 45 46 47 48 49 51 51 51 51 50 50 49 49 48 47 46 45 45 45 44 43 42 40 39 38 37 34 32 31 29 27 25 23 22 20 18 15 12 10 9 8 7 6 6 6 6 6 7 9 12 15 17 19 19 20 24 26 23
34 34 34 34 35 33 33 35 37 39 40 40 40 40 39 39 39 41 43 44 43 42 41 41 42 43 43 44 44 46 48 50 52 53 53 52 50 48 47 47 47 46 45 44 43 43 43 43 42 40 39 37 35 33 30 28 26 24 23 23 23 22 19 15 13 12 11 9 7 5 5 5 5 6 8 11 15 16 16 17 17 21 24 24 19
34 33 32 35 37 36 34 33 35 37 38 38 39 39 38 38 39 40 41 41 40 39 39 41 43 43 43 43 44 46 48 49 51 52 53 53 51 48 47 46 45 45 44 44 44 43 43 43 41 39 37 36 34 32 29 27 25 23 21 21 22 21 19 16 16 14 12 10 8 6 5 5 5 6 9 13 14 14 14 15 17 20 20 18 17
34 32 32 35 37 37 36 35 33 34 36 37 37 37 37 37 37 38 38 38 38 37 39 41 42 41 41 42 44 45 46 47 49 51 52 53 52 49 47 45 45 44 44 43 43 43 44 42 40 38 37 36 34 31 28 26 25 23 22 22 20 18 15 13 13 12 11 10 9 7 6 5 5 7 10 12 13 13 14 15 16 18 18 17 19
34 33 34 35 37 38 39 37 34 33 34 35 35 34 33 35 36 36 36 36 35 37 39 39 39 39 39 40 42 43 42 43 46 48 50 51 52 49 46 44 45 44 44 43 43 44 44 43 40 37 36 35 33 31 29 26 23 22 22 21 19 18 16 13 11 9 9 9 9 8 7 5 6 8 9 10 11 12 14 14 15 15 15 15 19
32 32 34 35 36 37 39 38 36 35 33 32 31 30 31 33 33 33 33 32 33 36 37 37 37 38 39 40 40 40 40 42 44 46 48 49 50 49 46 43 43 43 43 44 44 45 46 45 43 40 37 35 34 32 30 28 25 23 23 21 20 19 18 16 14 11 11 10 10 9 9 8 8 10 9 8 9 12 12 13 15 17 19 22 28
30 30 33 35 36 36 37 37 37 37 35 31 28 28 29 30 31 30 30 31 34 35 36 37 38 38 39 39 38 38 40 41 42 44 47 47 48 47 44 41 39 39 40 43 44 44 45 45 43 41 38 36 35 34 32 30 28 27 26 25 23 22 20 19 16 15 14 13 11 9 8 8 8 8 7 7 9 12 12 15 19 23 27 29 31
28 29 32 34 36 37 36 36 36 37 36 32 28 27 28 29 29 29 29 30 31 32 34 35 37 37 38 38 38 38 38 39 40 42 45 45 44 43 42 39 37 36 37 40 41 42 42 42 41 39 38 37 35 34 32 32 31 30 30 27 24 22 21 18 15 14 13 12 10 9 8 7 7 8 9 9 9 12 15 20 24 25 24 24 25
27 29 32 34 36 37 37 36 36 35 35 32 29 29 28 27 27 26 27 28 29 30 32 33 34 35 36 37 38 37 35 37 39 40 42 42 40 39 39 37 35 34 35 38 40 39 39 40 39 37 37 37 34 31 31 32 32 31 29 26 23 20 18 16 14 14 13 11 10 9 8 8 8 8 8 8 8 11 16 21 23 21 18 15 16
28 29 32 34 35 36 37 36 35 34 33 31 30 29 27 26 25 25 26 27 28 29 30 30 31 33 35 37 38 37 36 36 38 40 40 40 39 39 39 37 34 33 33 34 36 37 36 37 37 37 36 37 33 29 29 31 33 32 28 25 22 20 19 17 16 14 13 12 11 9 8 9 9 10 11 11 12 14 17 20 21 19 16 13 13
29 31 33 34 34 34 34 34 34 33 32 31 30 28 27 25 24 24 25 26 26 26 27 28 29 30 32 35 36 36 36 36 38 39 39 39 40 40 39 37 34 32 32 33 34 34 33 33 34 35 35 34 32 29 28 30 32 31 27 24 23 23 22 19 17 16 15 13 13 12 11 11 13 14 14 13 14 16 17 18 17 15 16 16 15
31 33 34 33 31 32 33 33 34 34 33 32 31 28 26 24 23 23 25 26 26 25 25 26 27 28 29 31 33 35 35 35 37 38 38 38 40 40 40 38 35 32 32 34 34 33 33 32 31 31 33 32 31 29 29 30 30 28 25 24 24 23 20 18 17 16 15 13 13 13 13 14 15 16 15 14 14 15 14 13 12 13 15 18 17
34 36 34 31 30 32 33 33 34 34 34 33 31 29 25 23 23 23 24 24 24 23 24 25 25 26 27 28 30 32 33 34 36 37 37 38 40 41 41 39 37 35 34 34 34 35 36 35 32 31 32 32 31 29 29 29 27 25 25 24 22 19 17 18 17 15 13 13 13 14 15 17 17 16 15 15 14 14 12 11 12 13 15 17 19
36 36 32 30 31 33 34 34 34 34 34 33 31 29 26 22 21 22 22 22 22 22 23 23 23 23 24 26 29 30 31 33 35 36 36 37 37 39 41 40 38 37 36 34 35 37 39 40 38 34 32 31 29 28 28 28 26 25 24 21 18 17 18 19 18 15 14 14 14 16 18 18 16 14 13 13 13 13 13 13 13 15 16 18 20
37 35 32 31 33 34 35 36 35 33 33 32 30 29 26 22 20 20 20 21 21 20 21 21 21 20 21 23 26 28 29 31 33 35 36 36 35 36 40 40 38 39 38 35 36 38 40 41 39 35 30 29 28 27 27 27 26 25 23 20 18 19 20 19 17 16 15 15 16 18 17 15 13 12 12 12 13 13 14 15 16 17 19 21 22
35 34 33 34 37 37 37 37 36 33 32 31 28 28 26 22 20 20 20 20 19 18 19 19 19 18 19 21 24 27 28 29 32 34 35 36 34 32 36 39 39 38 37 34 35 39 40 39 38 34 30 29 28 27 26 26 25 23 21 21 22 22 21 19 17 17 16 16 17 17 15 12 10 10 11 12 13 15 16 17 19 20 21 23 24
32 33 36 39 41 41 40 39 37 34 32 29 27 26 25 23 21 20 20 19 19 18 17 18 19 18 18 20 21 25 27 27 30 34 36 37 35 32 33 38 40 38 36 33 33 36 38 36 34 31 28 28 28 26 26 25 23 21 21 24 24 23 20 19 18 18 17 17 16 14 11 9 9 10 11 13 14 17 18 19 21 22 23 25 26
33 35 39 42 42 41 41 40 37 34 31 28 27 27 25 24 22 21 20 20 19 18 17 18 19 18 18 19 20 23 26 27 28 32 35 36 35 33 33 35 36 36 35 32 30 30 29 29 29 28 27 28 28 27 26 24 23 22 23 24 24 22 21 20 19 17 16 15 13 12 9 8 9 10 11 14 16 17 19 20 22 24 24 26 28
35 37 39 41 41 41 39 37 35 33 31 28 27 26 26 25 23 21 21 20 19 19 19 18 18 18 18 19 21 24 27 27 26 28 30 32 32 31 32 34 34 33 32 30 27 26 25 25 26 27 26 25 26 27 26 25 24 25 24 23 22 21 19 18 16 15 14 13 11 9 7 7 8 10 12 14 16 18 18 19 22 24 25 26 27
36 39 41 40 37 36 35 34 34 33 32 29 26 25 25 25 25 25 26 25 22 21 21 21 21 22 21 20 21 25 27 28 28 29 31 32 32 31 32 34 34 34 35 32 29 28 27 26 27 27 26 25 25 27 27 26 24 24 23 21 20 19 17 15 14 13 12 11 9 7 6 7 9 11 13 15 17 18 18 19 21 24 24 24 24
39 41 42 38 34 32 32 32 32 31 31 29 27 27 27 27 28 30 31 31 30 28 26 25 27 28 25 24 26 29 30 31 33 34 34 34 34 32 31 33 34 33 35 35 33 32 31 30 30 30 28 28 27 27 27 26 23 22 21 20 19 18 17 16 14 12 11 9 7 6 6 8 10 11 13 16 17 18 18 19 21 22 23 22 22
37 38 37 34 32 31 29 30 30 28 28 27 26 27 29 29 30 31 31 31 33 32 31 29 30 30 29 29 31 34 35 34 32 31 32 33 34 32 30 32 33 32 33 36 36 34 32 31 31 31 31 30 29 27 27 27 25 23 21 20 19 18 17 16 14 12 10 9 7 6 6 7 10 12 14 16 18 19 19 19 20 21 23 23 23
32 34 34 32 31 29 28 29 29 28 28 28 26 25 25 25 27 30 30 28 27 28 29 29 28 28 29 30 29 30 31 30 27 28 31 33 34 33 29 29 32 34 35 37 36 33 31 30 29 30 32 31 29 28 28 28 26 24 22 21 20 19 17 15 13 11 9 7 5 4 5 7 10 12 14 16 18 19 19 19 20 22 22 22 23
31 34 36 33 31 29 28 28 28 26 24 25 24 23 22 20 20 23 26 26 25 25 26 27 26 25 25 27 27 26 26 25 25 29 32 33 35 35 31 31 34 36 38 39 35 30 29 27 25 26 27 26 26 28 28 28 26 25 23 22 20 18 16 14 12 10 8 6 5 5 6 8 10 12 14 16 18 19 20 19 20 21 22 23 23
33 35 35 31 28 27 27 26 25 22 20 20 21 21 19 16 14 14 18 22 25 26 26 26 27 26 24 25 26 26 26 26 27 29 32 34 37 37 34 34 37 39 40 38 33 28 27 26 24 26 28 27 27 29 29 28 26 24 23 22 20 17 15 13 10 9 7 5 5 6 6 8 10 11 14 16 18 19 20 20 20 21 21 22 23
35 35 34 30 27 25 23 22 22 22 23 23 23 23 21 20 17 15 13 13 16 20 23 25 27 28 26 26 26 25 25 27 28 30 32 34 37 38 36 35 38 40 41 38 32 28 27 27 27 29 30 29 29 30 29 27 25 24 23 21 19 16 14 12 10 8 7 5 5 6 7 8 9 10 14 17 18 20 21 20 20 21 20 21 24
34 34 33 30 27 25 25 27 28 29 29 28 27 26 23 21 20 18 15 12 10 14 19 23 26 27 27 27 27 26 26 27 28 31 33 34 37 39 36 33 34 36 36 34 32 32 32 31 30 31 31 30 30 31 30 28 26 25 23 21 18 16 14 11 9 7 6 6 6 6 6 7 9 11 15 18 19 20 21 21 21 21 21 22 24
33 34 34 33 33 33 33 32 32 31 29 27 27 26 24 23 20 19 19 17 15 14 16 19 23 26 27 28 27 26 27 27 28 32 34 35 38 40 36 31 29 29 29 30 32 33 33 32 31 31 31 31 31 30 29 27 26 24 22 19 17 14 12 10 8 7 6 6 5 5 5 7 10 12 15 18 19 19 21 23 22 22 22 22 23
35 35 35 35 34 34 32 28 26 27 27 26 25 24 22 21 20 19 18 17 16 16 15 16 19 20 23 26 26 26 27 28 28 31 33 35 38 40 35 29 27 27 27 30 32 32 31 30 31 33 33 32 31 30 28 26 24 22 20 17 15 13 11 9 7 6 6 5 4 5 7 8 11 12 14 17 19 19 21 23 23 23 22 22 23
37 36 35 33 31 30 28 26 26 29 30 28 26 24 21 18 17 18 17 16 16 15 15 16 17 18 20 23 25 26 27 27 27 29 31 33 37 37 32 28 28 28 29 30 31 31 30 30 31 34 34 32 31 29 27 24 23 20 18 16 14 12 10 8 6 5 5 4 4 6 7 9 10 12 14 16 19 20 22 23 23 23 23 22 21
31 31 32 33 32 31 30 29 28 28 27 26 25 24 23 19 16 16 15 15 15 15 15 15 17 18 20 22 24 25 24 24 24 25 27 30 33 32 29 27 27 28 28 29 30 31 32 31 32 33 33 31 29 27 25 23 22 19 17 15 13 11 9 7 6 4 4 5 5 6 7 9 11 13 15 17 20 21 22 22 22 23 23 24 23
29 29 30 30 30 29 28 27 26 24 22 22 22 22 20 18 16 16 15 15 14 15 16 16 17 19 22 24 26 27 25 23 23 25 26 27 27 27 27 28 28 29 31 32 32 33 34 34 34 33 32 30 28 26 24 22 20 18 16 14 11 10 8 7 5 4 4 5 6 6 8 10 12 14 17 19 20 21 21 22 22 23 24 25 27
29 28 28 27 27 26 25 25 25 24 23 22 21 20 18 17 17 17 16 16 15 15 16 17 18 20 23 25 28 30 27 24 24 24 24 25 25 26 28 30 31 33 34 34 34 35 35 35 34 32 31 29 27 25 23 21 19 17 15 12 11 9 8 6 5 4 4 5 6 7 9 10 13 15 17 19 20 21 22 23 24 25 24 25 28
27 25 25 25 25 25 24 24 26 26 24 22 21 20 19 18 18 17 17 16 16 16 16 16 17 20 22 25 29 30 27 23 22 22 22 24 26 27 29 31 34 35 36 35 35 35 35 34 32 31 29 28 27 25 23 21 18 16 14 12 11 9 7 6 4 3 4 5 7 8 9 11 14 16 18 19 21 22 23 24 25 24 24 27 28
27 25 25 24 23 23 23 23 23 22 20 19 20 21 21 19 18 18 17 16 16 15 14 14 16 18 20 25 30 30 24 21 22 23 24 25 26 28 29 31 33 34 34 34 34 34 33 32 31 29 27 26 25 23 21 18 16 15 13 11 10 9 7 5 4 4 4 6 8 8 10 12 15 17 19 21 22 23 23 24 25 24 25 27 29
25 24 23 23 23 23 23 23 22 21 20 20 20 21 21 19 17 16 15 14 15 15 14 15 16 17 19 23 26 25 22 22 24 24 25 26 28 29 31 32 33 33 34 33 32 32 31 29 28 27 25 23 21 19 17 16 14 13 12 10 9 8 6 5 4 4 5 7 8 9 11 13 15 18 20 21 22 23 24 23 24 25 26 27 26
24 23 22 21 21 21 21 20 20 20 21 21 19 18 17 16 15 14 14 13 13 14 14 15 16 17 18 18 20 22 24 25 25 25 27 29 30 31 32 33 34 34 34 32 30 29 28 27 26 25 24 22 20 18 16 14 13 11 10 9 8 6 5 4 4 5 6 8 9 10 12 14 16 19 21 22 24 25 24 24 24 25 26 26 25
24 23 23 21 20 19 19 19 20 20 19 17 14 12 13 13 13 13 13 13 13 14 13 14 15 17 18 19 21 23 25 26 27 27 28 30 32 33 33 33 32 32 31 29 27 26 25 24 24 23 21 20 18 16 14 13 11 9 8 7 6 5 4 4 5 6 7 8 10 11 13 15 18 20 22 25 27 26 24 24 25 25 26 26 26
21 20 19 18 16 15 16 16 15 13 11 10 9 9 9 10 11 11 12 13 13 13 14 15 17 18 20 21 23 24 25 27 28 28 29 32 34 35 34 33 31 30 28 26 25 24 23 22 21 19 18 17 15 14 13 11 9 8 7 5 5 5 5 5 7 8 8 9 11 12 13 15 18 21 25 28 27 24 23 24 25 26 26 26 26
18 16 13 11 8 7 6 4 2 2 3 6 7 8 9 10 11 11 12 14 15 16 18 18 19 19 21 22 23 25 27 28 29 30 33 35 36 35 34 32 31 29 27 26 25 23 22 21 20 18 16 15 13 11 10 9 7 6 5 5 5 5 6 7 8 8 9 10 11 12 13 16 20 24 27 27 25 23 24 26 25 26 27 26 26
18 16 14 12 11 10 9 8 8 8 8 10 11 11 11 13 13 14 16 17 17 18 19 20 20 21 22 23 24 26 28 30 31 33 36 36 35 33 31 30 29 28 27 26 24 23 21 19 18 16 14 13 11 10 9 7 6 5 5 5 5 6 7 8 8 8 9 10 11 11 13 17 22 25 25 24 22 23 25 26 26 26 26 25 26
19 18 16 15 15 14 13 13 13 12 12 13 13 13 13 14 14 15 17 18 18 18 19 20 21 22 23 24 25 27 29 32 35 37 37 35 33 31 30 28 27 26 25 23 22 21 19 17 16 14 13 11 10 8 7 6 5 5 5 5 5 6 6 7 8 9 9 9 9 11 15 20 24 25 23 21 22 25 25 25 26 26 25 25 27
20 19 18 18 17 16 16 15 15 14 14 14 14 14 14 15 15 15 17 18 18 19 20 20 21 22 22 23 27 29 31 33 36 36 35 33 32 30 29 27 26 24 23 21 19 18 16 15 13 12 10 9 8 7 6 5 5 5 5 5 5 5 6 7 8 9 8 8 11 15 18 22 24 23 20 20 24 25 25 26 26 25 24 25 27
Wind_Direction
251 248 244 240 237 235 233 231 230 229 228 226 226 226 226 227 227 226 224 221 218 216 214 213 213 212 210 210 210 210 210 210 211 211 210 211 211 212 212 212 211 212 211 209 209 209 208 207 207 206 205 204 204 205 206 206 206 204 203 201 198 196 195 192 197 250 271 275 277 276 279 284 291 300 308 314 323 330 332 334 336 338 338 339 340
262 259 257 253 249 246 242 238 235 232 230 229 229 228 228 228 228 227 226 224 221 218 216 214 214 212 210 210 210 210 210 209 209 209 209 209 209 210 211 210 209 209 209 209 208 208 208 208 208 207 206 206 207 208 208 207 204 203 202 200 200 199 199 201 200 219 260 274 281 281 280 281 289 304 313 315 323 330 331 335 338 338 337 337 338
273 267 263 260 257 255 252 247 242 238 234 232 231 230 229 229 229 228 226 224 222 220 218 216 214 212 210 210 210 210 210 209 208 208 208 207 207 208 209 209 209 208 208 209 208 207 207 207 208 207 205 206 208 209 209 208 206 204 204 203 204 203 204 209 210 214 240 266 281 283 276 272 283 299 311 313 318 323 325 330 334 333 334 335 336
292 277 268 263 259 255 253 250 246 242 239 235 234 232 230 229 228 227 225 223 222 220 219 217 214 211 209 209 210 210 209 208 208 208 208 208 207 207 208 208 209 209 210 209 208 208 207 207 207 207 205 205 207 208 208 208 208 207 206 207 208 209 208 211 216 218 227 248 267 270 268 272 281 293 305 306 309 314 314 317 321 324 328 330 332
318 298 282 271 264 258 254 251 247 244 242 240 238 236 232 229 228 226 224 222 221 219 217 215 213 211 210 210 210 210 210 208 207 207 207 208 207 207 207 208 208 210 211 210 209 209 208 208 208 206 205 205 206 207 207 207 208 208 208 209 208 209 210 210 215 218 219 234 256 272 279 282 285 292 297 297 302 309 312 313 318 324 325 326 326
337 322 304 286 274 266 260 254 250 247 245 244 242 239 234 231 228 227 224 222 220 218 216 214 212 211 211 211 210 210 210 209 208 208 207 207 207 207 208 208 209 209 210 210 210 210 210 209 209 207 207 208 208 207 207 207 207 208 207 208 208 207 207 207 207 211 220 235 256 275 285 289 287 289 298 302 305 311 317 321 324 326 326 324 324
344 333 318 301 287 277 269 262 257 253 250 247 245 241 236 232 229 227 225 222 220 218 216 214 213 212 211 210 210 210 210 209 209 209 208 207 207 207 207 207 207 208 209 209 210 211 211 210 210 210 210 211 212 210 208 206 207 208 208 207 206 206 205 204 203 208 221 237 251 265 278 286 287 295 314 326 322 324 328 326 325 326 326 324 321
347 342 331 314 299 289 281 272 265 260 256 252 248 243 238 233 230 227 225 222 221 219 217 215 214 212 211 209 209 209 209 209 209 209 208 207 207 206 207 206 206 206 207 208 209 210 210 210 211 212 213 214 215 214 211 209 206 206 207 206 205 205 203 200 198 203 214 226 241 256 271 284 292 310 335 345 339 336 334 327 321 321 322 321 320
348 347 344 335 322 307 294 282 273 266 261 256 251 245 240 235 231 227 224 223 222 220 218 216 214 212 211 210 208 207 208 209 210 209 208 207 206 206 206 205 205 204 204 205 207 208 208 209 211 213 214 215 216 216 215 213 211 208 206 204 202 202 199 195 196 202 207 217 240 262 275 285 302 326 343 346 339 332 331 328 321 318 320 319 319
348 349 349 347 341 329 312 295 283 273 265 258 253 247 242 237 231 227 225 224 222 220 217 215 214 213 211 210 208 207 208 210 211 211 210 208 206 205 205 205 204 204 203 202 203 205 206 208 210 212 213 213 214 214 214 214 215 215 213 210 206 201 195 191 197 203 207 219 239 257 273 289 316 335 334 335 333 331 332 331 323 321 322 320 322
345 346 347 347 346 342 331 315 297 283 272 263 255 248 242 236 231 228 225 223 221 219 216 215 215 214 212 210 209 209 210 210 211 211 211 210 208 205 205 205 204 203 203 201 201 202 203 205 207 208 209 209 210 211 211 211 211 211 213 212 210 206 199 193 196 203 212 224 234 245 266 285 309 327 327 330 332 331 331 328 323 322 323 322 322
342 342 344 346 347 346 341 330 315 297 282 269 259 250 242 236 231 228 225 222 219 217 216 216 215 214 213 212 212 212 212 212 211 211 211 211 210 207 205 204 203 203 203 202 201 201 201 202 204 204 205 206 206 206 206 207 208 207 206 204 205 207 206 202 199 201 208 216 226 242 264 282 299 314 323 327 328 326 324 324 322 319 317 317 314
340 340 341 343 345 346 344 338 327 311 295 279 265 254 244 237 232 228 225 222 219 216 216 216 215 213 213 213 214 214 214 213 212 211 210 211 210 208 206 205 204 203 203 202 202 201 200 199 199 200 202 203 204 204 201 199 199 201 199 199 203 206 208 213 217 213 213 221 235 248 256 268 286 301 312 318 318 318 320 319 319 316 313 311 307
338 337 338 340 341 343 344 341 333 323 310 293 276 261 249 241 235 231 226 222 218 217 217 215 214 214 214 214 215 216 215 214 213 211 210 210 210 209 207 206 205 205 204 203 202 202 201 200 199 199 199 200 202 201 198 193 190 191 194 198 204 205 206 210 216 220 224 228 233 240 249 264 282 292 300 305 310 314 317 319 320 316 308 303 302
334 336 336 337 338 339 340 339 335 329 320 306 287 270 257 247 240 233 227 223 220 218 217 215 215 214 214 214 215 217 217 215 212 211 209 209 209 209 207 205 205 205 205 205 204 203 203 202 200 199 198 198 200 200 197 192 188 190 194 197 201 202 202 203 207 214 220 219 223 238 258 274 281 283 289 296 302 303 303 304 306 307 305 304 302
332 334 334 335 335 334 335 335 334 331 325 313 296 279 266 255 246 237 230 226 223 221 219 217 216 215 214 213 214 217 218 215 212 210 208 207 207 206 205 204 203 203 203 204 203 203 202 200 199 198 198 198 199 199 197 194 191 191 193 196 199 201 203 205 209 215 217 218 230 250 265 269 271 276 284 291 293 294 295 296 299 305 308 307 303
330 332 332 331 331 331 331 331 330 330 325 315 301 287 274 262 253 243 233 228 225 222 221 220 218 216 214 212 213 215 216 213 211 208 206 204 202 201 201 200 200 200 201 201 200 200 200 201 200 199 199 198 197 195 195 195 194 193 192 193 194 198 204 207 210 215 222 227 234 244 254 260 266 272 272 272 282 295 301 300 301 306 309 306 302
330 330 328 326 327 327 328 327 326 325 321 313 303 293 282 270 260 249 238 233 230 226 224 222 220 218 216 214 213 213 214 211 208 206 203 200 199 199 197 195 196 197 196 196 197 198 200 202 202 200 199 198 194 188 189 193 193 191 188 187 190 199 205 204 206 214 218 217 221 233 251 257 254 255 258 267 284 297 297 295 295 297 295 290 294
328 326 323 322 322 322 324 324 322 319 316 312 306 298 288 278 266 253 243 237 235 232 227 223 221 220 218 217 215 214 213 210 206 204 201 198 198 197 194 192 192 192 189 189 192 196 198 200 201 201 200 196 189 184 185 190 191 189 186 186 193 202 205 202 206 210 207 211 228 243 251 250 250 259 272 285 296 300 296 292 290 287 283 282 287
323 322 319 317 318 319 320 321 320 318 315 311 307 301 293 282 270 257 247 241 237 234 229 224 223 222 219 218 216 214 213 209 204 202 199 197 199 197 192 191 190 187 185 185 186 190 194 196 196 200 200 194 187 183 185 189 191 190 188 192 197 200 201 201 203 206 210 220 236 242 244 250 260 273 289 301 305 304 300 294 286 278 276 279 281
320 319 316 314 315 317 317 318 318 318 316 313 308 301 293 283 271 260 250 242 236 233 229 225 223 223 220 218 215 214 214 210 205 202 199 198 199 197 193 192 191 187 185 187 188 188 190 191 192 196 198 194 187 186 188 189 191 192 194 198 199 196 197 201 201 204 215 223 228 235 246 257 268 282 296 305 307 306 304 299 289 278 271 272 276
319 317 313 311 313 315 315 315 315 315 315 314 307 298 291 282 269 259 249 241 234 231 228 223 221 221 219 217 215 213 213 212 207 203 201 200 200 199 197 196 194 190 188 188 190 190 189 191 192 193 193 192 188 187 189 189 191 194 197 199 198 196 199 202 203 206 212 217 228 242 253 263 275 290 300 303 305 309 309 303 292 281 274 270 270
317 313 310 309 311 313 313 312 312 311 311 310 304 295 288 278 265 254 244 237 231 229 227 222 219 218 215 214 214 212 211 211 209 205 202 202 202 200 200 200 197 194 193 191 192 192 190 191 192 190 189 189 187 187 189 188 189 193 195 195 194 195 198 199 200 204 211 222 235 247 257 268 281 294 302 306 310 311 308 300 291 285 282 280 277
314 310 309 309 309 310 310 309 307 305 304 303 297 289 282 272 260 250 240 232 227 227 226 221 216 215 214 213 213 211 209 210 209 205 204 205 204 199 198 200 200 198 197 195 193 193 191 190 190 189 187 187 186 186 187 187 188 191 192 191 191 193 196 197 199 207 218 228 239 248 259 272 286 299 306 309 311 309 304 298 293 291 289 287 286
310 308 308 308 308 308 308 306 303 299 298 295 288 281 275 265 253 243 233 226 223 224 223 219 218 218 217 214 213 210 208 207 208 206 204 206 207 200 194 198 202 201 199 197 195 194 191 189 188 187 186 187 186 184 185 186 187 186 183 185 191 196 200 203 207 215 223 230 239 248 260 276 291 304 309 310 308 305 302 300 299 299 299 297 295
307 306 306 305 306 306 305 303 301 298 294 288 281 275 268 258 249 239 228 222 221 222 221 219 219 222 223 220 216 210 206 205 207 207 205 206 209 204 195 195 198 198 197 195 191 189 186 182 181 183 186 188 186 182 181 181 179 177 180 189 198 203 207 211 213 218 224 231 240 250 263 281 294 303 307 305 304 302 303 304 302 302 305 304 300
305 303 302 302 303 303 302 299 297 296 293 286 277 271 263 253 245 237 227 220 217 218 219 219 218 220 224 223 216 209 206 205 205 206 205 205 209 207 198 191 190 189 190 188 182 178 176 174 176 180 180 180 179 177 176 173 171 176 186 197 204 208 214 217 217 219 225 231 240 253 270 286 294 301 303 302 303 305 307 306 301 300 304 304 299
303 300 298 298 297 296 295 294 292 292 290 283 273 266 258 248 240 236 230 223 217 215 215 216 217 219 220 219 210 202 203 206 206 204 201 200 204 205 196 189 186 184 183 180 175 172 170 169 172 175 171 169 172 174 176 176 178 185 194 200 205 209 211 211 212 218 224 231 241 255 274 287 292 299 303 303 304 308 311 307 301 298 301 301 296
300 297 296 296 293 291 290 288 286 286 285 282 274 266 259 250 243 242 239 233 227 223 220 219 221 220 219 217 207 197 199 208 209 205 201 199 200 202 196 188 185 182 178 175 171 167 166 166 167 167 165 167 170 172 176 180 185 191 198 201 205 206 205 206 211 216 218 224 237 251 270 288 294 300 304 303 304 310 312 307 300 298 297 294 289
296 293 293 294 292 291 289 285 283 282 282 281 278 272 266 257 248 245 245 242 237 232 229 229 229 225 222 222 217 210 211 214 209 202 200 199 200 202 197 189 184 178 171 169 167 165 164 165 165 166 169 172 173 174 178 184 187 191 195 199 203 203 204 207 208 207 208 216 229 249 275 293 299 302 304 303 304 309 309 303 297 294 293 290 288
290 288 289 289 289 290 288 285 284 282 279 279 278 275 271 264 253 247 245 243 239 234 232 232 233 229 225 225 224 221 220 217 205 196 198 199 200 201 197 187 182 177 169 166 166 166 168 169 170 173 176 176 177 179 182 186 189 191 192 195 199 202 203 203 200 202 210 217 228 258 281 293 298 302 302 302 302 302 301 300 296 292 290 289 287
282 283 285 285 285 284 282 280 279 276 273 273 272 267 265 264 260 252 245 241 239 236 233 231 230 227 224 223 222 219 214 208 200 196 198 198 199 200 194 183 178 175 171 169 170 172 175 174 173 174 176 177 180 183 185 187 190 192 192 194 196 198 198 199 199 203 213 221 237 262 282 293 297 299 300 300 298 295 294 295 294 292 293 292 289
279 279 281 281 279 276 274 275 276 274 273 274 271 265 259 256 257 257 247 239 237 236 234 231 229 225 222 221 219 216 210 203 199 198 198 197 198 199 194 184 177 174 173 172 172 173 175 174 173 175 178 182 185 186 188 189 191 193 195 197 196 194 193 195 201 208 217 230 251 267 282 292 294 298 300 298 295 292 291 292 293 293 294 293 292
279 278 278 274 271 271 272 276 280 282 283 282 277 270 261 251 247 249 245 235 233 233 231 229 228 226 224 221 217 212 206 201 199 198 198 197 199 198 194 186 181 178 177 176 172 170 171 173 177 180 183 186 188 187 188 189 190 192 195 196 195 192 192 195 203 213 221 231 249 263 276 289 296 300 299 297 294 292 291 292 293 293 292 293 296
281 281 279 276 276 279 281 282 282 279 276 273 269 265 260 251 244 239 235 229 224 223 223 222 222 222 222 221 217 211 205 200 198 198 198 198 199 196 190 184 182 181 178 175 172 171 173 178 181 183 185 186 187 187 187 187 190 193 194 195 194 193 193 197 200 206 218 231 246 262 277 295 302 300 294 291 291 291 290 291 292 291 291 294 297
282 282 282 282 283 283 281 278 273 268 265 263 262 259 254 248 242 236 233 229 225 222 219 217 216 217 219 219 216 211 205 200 198 199 199 198 197 194 189 183 181 178 172 171 173 175 177 181 182 182 184 185 186 187 188 188 190 193 194 195 195 192 189 191 191 195 212 228 245 267 286 295 297 296 293 291 291 290 290 291 292 291 293 296 298
281 280 279 279 279 276 274 273 274 276 279 280 277 270 258 244 235 232 230 227 224 223 219 211 207 210 216 217 214 208 204 201 199 201 201 199 198 196 192 184 178 171 167 171 174 174 175 178 181 182 184 185 184 185 187 188 190 192 193 193 192 188 185 185 187 197 213 229 251 274 286 290 294 297 295 292 290 290 290 291 292 292 295 298 299
279 277 276 275 274 273 274 278 281 280 279 278 277 275 267 251 234 229 227 223 220 218 214 206 200 200 206 209 205 202 200 198 199 203 202 200 199 199 193 184 176 170 169 171 172 171 171 176 181 183 183 183 182 183 185 187 188 190 191 190 187 184 184 186 189 200 222 244 259 269 279 288 296 302 299 292 288 289 290 291 292 294 297 299 297
277 277 276 275 275 275 275 275 272 267 262 260 260 261 257 248 233 225 222 219 218 215 209 205 202 201 202 199 193 191 192 193 197 201 200 199 200 199 190 179 171 166 165 166 168 169 172 175 179 180 180 180 182 183 184 186 187 188 188 187 185 184 185 189 194 202 222 243 252 263 280 292 300 305 302 294 290 289 289 289 293 296 298 298 299
278 277 277 276 274 272 271 270 269 265 262 260 259 255 246 234 225 221 217 214 214 211 207 206 205 202 199 194 187 184 186 190 195 198 196 195 195 189 179 171 164 159 161 165 168 172 176 176 176 177 177 179 182 182 183 184 185 185 187 188 187 187 189 192 200 211 227 244 256 269 283 295 302 305 303 299 295 291 289 290 293 295 295 297 301
278 277 277 276 273 272 271 269 268 265 262 260 262 259 246 230 222 220 215 211 211 210 207 208 207 201 197 193 187 184 186 191 194 194 190 185 179 171 167 165 162 162 166 169 170 173 175 174 173 173 175 178 180 180 180 182 183 184 187 189 189 193 196 197 205 225 240 252 267 277 286 297 305 304 302 301 298 294 291 291 294 294 294 299 305
278 276 275 273 270 268 267 264 263 261 256 253 255 256 246 231 222 218 214 211 210 208 205 205 204 199 196 193 190 188 189 190 187 181 174 169 165 161 161 162 165 169 173 172 171 171 171 170 170 172 175 177 179 179 180 182 183 184 188 191 194 199 201 201 209 232 249 261 273 282 289 301 306 303 300 300 297 294 293 294 294 295 297 303 308
275 270 269 267 264 262 260 260 261 259 252 247 247 246 239 229 221 217 214 210 207 205 202 199 195 190 189 193 193 189 183 176 172 167 161 158 156 154 156 160 165 170 172 170 169 169 168 168 171 173 176 178 179 180 181 182 183 185 189 192 198 204 206 208 218 232 252 266 278 286 295 303 306 304 303 302 297 293 294 294 294 297 302 306 309
272 266 263 262 260 258 258 258 260 261 260 258 253 242 231 222 216 212 209 206 204 201 196 190 184 180 182 190 190 179 164 158 160 158 154 152 151 152 156 161 164 166 165 165 166 167 167 168 170 171 173 175 177 178 180 181 183 187 190 194 202 208 210 214 223 236 256 269 282 293 298 302 305 305 304 302 297 294 295 294 295 301 306 308 308
273 265 262 260 259 259 259 257 257 258 259 257 250 235 219 211 207 202 200 198 194 190 186 182 176 171 169 169 165 156 150 150 151 150 149 150 151 154 159 162 163 163 163 163 164 165 166 168 169 169 171 174 175 176 180 183 184 189 195 201 208 213 216 222 233 248 263 274 288 297 298 301 305 306 303 301 298 296 293 293 297 304 307 307 307
279 271 265 260 255 256 259 259 258 257 252 243 230 213 201 197 195 191 189 186 180 174 167 160 154 150 147 144 144 143 143 143 143 144 147 150 151 153 156 157 157 158 160 160 161 164 165 167 168 169 171 173 174 177 181 183 186 192 200 209 217 223 228 233 244 259 270 279 289 294 296 301 306 306 305 304 301 296 291 294 302 306 306 304 304
292 285 279 271 263 261 263 262 258 251 239 220 199 184 177 175 172 169 166 161 154 145 136 131 132 133 133 134 136 137 138 139 141 143 146 148 148 148 149 149 150 153 155 157 159 162 163 163 165 168 171 172 175 178 181 185 190 198 205 218 231 237 241 247 254 264 274 281 286 290 296 302 304 305 306 304 299 293 293 301 306 307 304 302 304
317 316 317 317 317 312 305 294 265 176 140 132 130 131 133 133 133 132 131 128 125 122 120 120 121 123 125 127 131 134 136 136 137 139 142 144 144 145 146 148 150 152 155 157 159 161 162 163 165 168 171 173 176 181 185 191 199 205 214 233 244 245 250 257 261 270 280 283 284 289 298 304 304 304 301 296 291 294 302 307 307 305 302 301 304
344 346 353 2 11 22 35 49 63 73 83 92 98 100 104 108 110 110 112 113 113 115 117 118 119 120 122 125 128 132 135 135 136 138 140 141 142 143 145 148 151 153 156 159 160 161 163 164 166 169 171 174 179 185 190 197 207 214 226 243 249 251 256 261 267 278 282 279 281 292 303 306 304 299 292 289 294 305 310 309 305 303 301 301 305
4 7 11 16 23 32 43 53 61 66 75 84 88 89 90 94 96 101 106 108 108 109 113 115 118 122 125 127 130 133 135 137 139 141 141 141 142 144 147 148 151 154 157 159 160 162 164 165 166 169 173 177 183 190 196 202 214 225 236 244 249 255 261 265 271 276 274 276 289 300 303 301 297 290 286 294 309 316 313 308 304 301 300 302 306
14 17 21 24 29 36 44 50 55 60 66 74 80 84 88 89 89 94 99 102 104 107 110 113 116 119 122 126 132 136 137 138 140 142 142 142 144 146 147 149 152 155 158 160 161 163 164 166 167 171 176 180 187 196 204 214 227 239 247 252 257 262 265 268 271 273 276 285 294 295 295 295 291 286 291 310 320 318 312 307 303 299 300 305 308